Scappoose, OR

9:01 AM PST on December 15, 2017 (GMT -0800)
Scappoose Industrial

Weather History for KSPB - October, 2012

Change the Weather History Date:

Friday, October 26, 2012

  Actual Average Record
Temperature  
Mean Temperature 44 °F -  
Max Temperature 50 °F - 73 °F (2008)
Min Temperature 40 °F - 28 °F (2011)
Degree Days  
Heating Degree Days 20    
Month to date heating degree days 322  
Since 1 July heating degree days 480  
Cooling Degree Days 0    
Month to date cooling degree days 6  
Year to date cooling degree days 245  
Moisture  
Dew Point 44 °F    
Average Humidity 95    
Maximum Humidity 100    
Minimum Humidity 89    
Precipitation  
Precipitation 0.06 in - 0.83 in (2016)
Month to date precipitation 3.15  
Year to date precipitation 34.15  
Sea Level Pressure  
Sea Level Pressure 30.16 in    
Wind  
Wind Speed 1 mph (SE)    
Max Wind Speed 9 mph    
Max Gust Speed 12 mph    
Visibility 3 miles    
Events Fog , Rain    
T = Trace of Precipitation, MM = Missing Value Source: NWS Daily Summary

Daily Weather History Graph

Daily Weather History Graph

Search for Another Location

Airport or City:

Trip Planner

Search our weather history database for the weather conditions in past years. The results will help you decide how hot, cold, wet, or windy it might be!

Date:

Astronomy

Oct. 26, 2012 Rise Set
Actual Time 7:43 AM PDT 6:06 PM PDT
Civil Twilight 7:13 AM PDT 6:36 PM PDT
Nautical Twilight 6:38 AM PDT 7:11 PM PDT
Astronomical Twilight 6:03 AM PDT 7:45 PM PDT
Moon 4:30 PM PDT (10/26) 4:38 AM PDT (10/26)
Length of Visible Light 11h 23m
Length of Day
10h 22m
Waxing Gibbous, 91% of the Moon is Illuminated
Oct 26
Waxing Gibbous
Oct 29
Full
Nov 6
Last Quarter
Nov 13
New
Nov 20
First Quarter

Hourly Weather History & Observations

Time (PDT) Temp. Windchill Dew Point Humidity Pressure Visibility Wind Dir Wind Speed Gust Speed Precip Events Conditions
12:53 AM 41.0 °F - 39.0 °F 93% 30.30 in 10.0 mi Calm Calm - N/A   Mostly Cloudy
1:53 AM 42.1 °F - 39.9 °F 92% 30.28 in 10.0 mi Calm Calm - N/A   Overcast
2:53 AM 42.1 °F - 39.9 °F 92% 30.26 in 10.0 mi Calm Calm - N/A   Overcast
3:53 AM 43.0 °F - 41.0 °F 93% 30.24 in 10.0 mi Calm Calm - N/A   Overcast
4:53 AM 43.0 °F - 41.0 °F 93% 30.23 in 10.0 mi Calm Calm - N/A   Overcast
5:53 AM 43.0 °F 40.3 °F 41.0 °F 93% 30.22 in 10.0 mi North 4.6 mph - N/A   Overcast
6:53 AM 43.0 °F - 42.1 °F 97% 30.20 in 9.0 mi Calm Calm - 0.00 in   Overcast
8:53 AM 45.0 °F - 43.0 °F 93% 30.18 in 10.0 mi Calm Calm - 0.00 in   Overcast
9:31 AM 44.6 °F - 42.8 °F 93% 30.18 in 3.0 mi Calm Calm - 0.01 in Rain Light Rain
9:38 AM 44.6 °F - 44.6 °F 100% 30.17 in 2.0 mi Calm Calm - 0.01 in Rain Light Rain
9:53 AM 45.0 °F - 43.0 °F 93% 30.17 in 3.0 mi Calm Calm - 0.01 in Rain Light Rain
10:00 AM 44.6 °F - 42.8 °F 93% 30.17 in 2.5 mi Calm Calm - 0.00 in Rain Light Rain
10:08 AM 44.6 °F - 44.6 °F 100% 30.17 in 3.0 mi Calm Calm - 0.01 in Rain Light Rain
10:53 AM 46.9 °F - 45.0 °F 93% 30.17 in 3.0 mi South 3.5 mph - 0.01 in   Overcast
11:10 AM 46.4 °F 45.2 °F 44.6 °F 93% 30.17 in 2.0 mi SE 3.5 mph - 0.00 in Rain Light Rain
11:37 AM 48.2 °F - 46.4 °F 93% 30.17 in 1.8 mi SE 4.6 mph - 0.01 in Rain Light Rain
11:47 AM 46.4 °F 42.9 °F 46.4 °F 100% 30.17 in 2.0 mi SE 6.9 mph - 0.02 in Rain Light Rain
11:48 AM 46.9 °F - 46.0 °F 97% 30.17 in 2.0 mi SE 5.8 mph - 0.02 in Rain Light Rain
12:46 PM 46.4 °F 44.3 °F 46.4 °F 100% 30.16 in 4.0 mi ESE 4.6 mph - 0.01 in   Overcast
12:53 PM 46.9 °F - 46.0 °F 97% 30.16 in 4.0 mi ESE 3.5 mph - 0.01 in   Overcast
1:10 PM 46.4 °F 44.3 °F 44.6 °F 93% 30.15 in 4.0 mi SE 4.6 mph - 0.00 in Rain Light Rain
1:53 PM 48.0 °F - 46.0 °F 93% 30.14 in 4.0 mi SSE 3.5 mph - 0.00 in Rain Light Rain
2:53 PM 48.0 °F - 46.0 °F 93% 30.13 in 4.0 mi Calm Calm - 0.01 in   Overcast
3:31 PM 48.2 °F - 46.4 °F 93% 30.13 in 7.0 mi Calm Calm - N/A   Overcast
3:45 PM 48.2 °F - 46.4 °F 93% 30.14 in 8.0 mi NW 3.5 mph - N/A   Overcast
3:53 PM 48.9 °F - 46.9 °F 93% 30.14 in 7.0 mi Calm Calm - N/A   Overcast
4:53 PM 48.9 °F - 46.9 °F 93% 30.14 in 7.0 mi Calm Calm - N/A   Overcast
5:53 PM 48.0 °F - 46.9 °F 96% 30.13 in 5.0 mi Calm Calm - N/A   Scattered Clouds
6:09 PM 48.2 °F - 46.4 °F 93% 30.13 in 2.5 mi Calm Calm - N/A   Mostly Cloudy
6:39 PM 46.4 °F - 46.4 °F 100% 30.13 in 3.0 mi Calm Calm - N/A   Overcast
6:42 PM 46.4 °F - 46.4 °F 100% 30.13 in 1.8 mi Calm Calm - N/A   Overcast
6:53 PM 46.0 °F - 45.0 °F 96% 30.13 in 0.5 mi Calm Calm - N/A Fog Fog
7:13 PM 46.4 °F - 46.4 °F 100% 30.14 in 2.0 mi Calm Calm - N/A   Overcast
7:21 PM 46.4 °F - 46.4 °F 100% 30.14 in 3.0 mi Calm Calm - N/A   Overcast
7:41 PM 46.4 °F - 46.4 °F 100% 30.14 in 2.0 mi Calm Calm - N/A   Overcast
7:53 PM 46.9 °F - 46.0 °F 97% 30.14 in 1.2 mi Calm Calm - N/A   Mostly Cloudy
8:03 PM 46.4 °F - 44.6 °F 93% 30.14 in 0.5 mi Calm Calm - N/A Fog Fog
8:24 PM 46.4 °F 45.2 °F 44.6 °F 93% 30.15 in 0.2 mi North 3.5 mph - N/A Fog Fog
8:35 PM 46.4 °F - 46.4 °F 100% 30.15 in 0.5 mi Calm Calm - N/A Fog Fog
8:43 PM 44.6 °F - 44.6 °F 100% 30.14 in 0.2 mi Calm Calm - N/A Fog Fog
8:53 PM 45.0 °F - 44.1 °F 97% 30.14 in 0.2 mi Calm Calm - N/A Fog Fog
9:34 PM 44.6 °F - 42.8 °F 93% 30.13 in 0.2 mi Calm Calm - N/A Fog Fog
9:50 PM 44.6 °F - 42.8 °F 93% 30.13 in 0.2 mi Calm Calm - N/A Fog Fog
9:53 PM 44.1 °F - 43.0 °F 96% 30.13 in 0.2 mi Calm Calm - N/A Fog Fog
10:01 PM 42.8 °F - 42.8 °F 100% 30.13 in 0.2 mi Calm Calm - N/A Fog Fog
10:17 PM 44.6 °F - 42.8 °F 93% 30.13 in 0.5 mi Calm Calm - N/A Fog Fog
10:23 PM 42.8 °F - 42.8 °F 100% 30.13 in 0.2 mi Calm Calm - N/A Fog Fog
10:36 PM 42.8 °F - 42.8 °F 100% 30.13 in 0.2 mi Calm Calm - N/A Fog Fog
10:45 PM 42.8 °F - 42.8 °F 100% 30.13 in 0.5 mi Calm Calm - N/A Fog Fog
10:53 PM 42.1 °F - 41.0 °F 96% 30.13 in 0.2 mi Calm Calm - N/A Fog Fog
11:09 PM 41.0 °F - 39.2 °F 93% 30.12 in 0.2 mi Calm Calm - N/A Fog Fog
11:39 PM 41.0 °F 39.0 °F 39.2 °F 93% 30.12 in 1.0 mi West 3.5 mph - N/A   Mist
11:53 PM 41.0 °F - 39.9 °F 96% 30.12 in 0.8 mi Calm Calm - N/A   Mostly Cloudy